When you browse on this site, cookies collect data to enhance your experience and personalize the content and advertising you see.
Visit our Privacy Policy to learn more. By continuing to use the site, you agree to this use of cookies and data.
  • In Portugal
  • List of Countries
  • For 7 days
  • Water Temperature
  • Satellite Maps
  • Weather Map
  • Weather Widgets
  • user-avatar
    Login

    Hourly Weather Zapora

    Today, 23 July, Tuesday

    Time Temperature Precipitation Wind Pressure Humidity
    00:00 +18°C° 0 mm 1 mps 753 mmHg 76%
    01:00 +16°C° 0 mm 1 mps 753 mmHg 79%
    02:00 +16°C° 0 mm 1 mps 752 mmHg 80%
    03:00 +16°C° 0 mm 1 mps 752 mmHg 81%
    04:00 +16°C° 0 mm 1 mps 752 mmHg 82%
    05:00 +16°C° 0.2 mm 1 mps 752 mmHg 85%
    06:00 +16°C° 0.2 mm 1 mps 752 mmHg 88%
    07:00 +16°C° 0.2 mm 1 mps 752 mmHg 91%
    08:00 +16°C° 0 mm 1 mps 752 mmHg 91%
    09:00 +18°C° 0 mm 1 mps 752 mmHg 90%
    10:00 +18°C° 0 mm 1 mps 752 mmHg 89%
    11:00 +19°C° 0 mm 1 mps 752 mmHg 90%
    12:00 +18°C° 0 mm 2 mps 752 mmHg 91%
    13:00 +18°C° 0 mm 2 mps 752 mmHg 92%
    14:00 +19°C° 0 mm 2 mps 752 mmHg 87%
    15:00 +21°C° 0 mm 3 mps 752 mmHg 82%
    16:00 +22°C° 0 mm 3 mps 752 mmHg 77%
    17:00 +21°C° 0 mm 3 mps 752 mmHg 79%
    18:00 +21°C° 0 mm 2 mps 752 mmHg 80%
    19:00 +21°C° 0 mm 2 mps 751 mmHg 81%
    20:00 +20°C° 0 mm 2 mps 751 mmHg 85%
    21:00 +19°C° 0 mm 2 mps 752 mmHg 88%
    22:00 +20°C° 0 mm 1 mps 752 mmHg 92%
    23:00 +18°C° 0 mm 2 mps 752 mmHg 93%

    Tomorrow, 24 July, Wednesday

    Time Temperature Precipitation Wind Pressure Humidity
    00:00 +18°C° 0 mm 2 mps 751 mmHg 94%
    01:00 +18°C° 0 mm 2 mps 751 mmHg 95%
    02:00 +17°C° 0 mm 2 mps 751 mmHg 96%
    03:00 +18°C° 0 mm 1 mps 751 mmHg 96%
    04:00 +18°C° 0 mm 1 mps 751 mmHg 97%
    05:00 +19°C° 0 mm 1 mps 751 mmHg 91%
    06:00 +20°C° 0 mm 2 mps 751 mmHg 86%
    07:00 +21°C° 0 mm 2 mps 751 mmHg 80%
    08:00 +24°C° 0 mm 2 mps 751 mmHg 72%
    09:00 +26°C° 0 mm 2 mps 751 mmHg 64%
    10:00 +27°C° 0 mm 2 mps 752 mmHg 57%
    11:00 +28°C° 0.1 mm 2 mps 752 mmHg 54%
    12:00 +28°C° 0.1 mm 2 mps 751 mmHg 52%
    13:00 +29°C° 0.1 mm 2 mps 751 mmHg 50%
    14:00 +29°C° 0.2 mm 2 mps 751 mmHg 53%
    15:00 +29°C° 0.2 mm 2 mps 751 mmHg 56%
    16:00 +28°C° 0.2 mm 3 mps 751 mmHg 58%
    17:00 +27°C° 0.1 mm 2 mps 751 mmHg 65%
    18:00 +26°C° 0.1 mm 2 mps 751 mmHg 71%
    19:00 +24°C° 0.1 mm 2 mps 751 mmHg 77%
    20:00 +23°C° 0 mm 2 mps 751 mmHg 81%
    21:00 +21°C° 0 mm 2 mps 751 mmHg 85%
    22:00 +20°C° 0 mm 1 mps 752 mmHg 89%
    23:00 +20°C° 0 mm 1 mps 752 mmHg 90%

    Day after tomorrow, 25 July, Thursday

    Time Temperature Precipitation Wind Pressure Humidity
    00:00 +19°C° 0 mm 1 mps 752 mmHg 90%
    01:00 +19°C° 0 mm 1 mps 752 mmHg 91%
    02:00 +18°C° 0 mm 1 mps 752 mmHg 92%
    03:00 +18°C° 0 mm 1 mps 752 mmHg 93%
    04:00 +18°C° 0 mm 1 mps 752 mmHg 93%
    05:00 +19°C° 0 mm 1 mps 752 mmHg 87%
    06:00 +21°C° 0 mm 1 mps 752 mmHg 82%
    07:00 +22°C° 0 mm 1 mps 752 mmHg 76%
    08:00 +24°C° 0 mm 1 mps 752 mmHg 68%
    09:00 +25°C° 0 mm 2 mps 752 mmHg 59%
    10:00 +27°C° 0 mm 2 mps 753 mmHg 51%
    11:00 +28°C° 0 mm 2 mps 753 mmHg 47%
    12:00 +29°C° 0 mm 2 mps 752 mmHg 43%
    13:00 +30°C° 0 mm 2 mps 752 mmHg 39%
    14:00 +29°C° 0 mm 3 mps 752 mmHg 40%
    15:00 +29°C° 0 mm 3 mps 752 mmHg 40%
    16:00 +29°C° 0 mm 4 mps 752 mmHg 41%
    17:00 +27°C° 0 mm 3 mps 752 mmHg 47%
    18:00 +25°C° 0 mm 3 mps 752 mmHg 53%
    19:00 +24°C° 0 mm 3 mps 752 mmHg 59%
    20:00 +21°C° 0 mm 2 mps 752 mmHg 65%
    21:00 +19°C° 0 mm 2 mps 752 mmHg 71%
    22:00 +18°C° 0 mm 2 mps 752 mmHg 76%
    23:00 +17°C° 0 mm 2 mps 752 mmHg 80%

    26 July, Friday

    Time Temperature Precipitation Wind Pressure Humidity
    00:00 +17°C° 0 mm 2 mps 752 mmHg 83%
    01:00 +16°C° 0 mm 2 mps 752 mmHg 87%
    02:00 +16°C° 0 mm 2 mps 751 mmHg 90%
    03:00 +16°C° 0 mm 2 mps 751 mmHg 93%
    04:00 +15°C° 0 mm 2 mps 751 mmHg 95%
    05:00 +17°C° 0 mm 2 mps 751 mmHg 86%
    06:00 +19°C° 0 mm 3 mps 751 mmHg 77%
    07:00 +21°C° 0 mm 3 mps 751 mmHg 68%
    08:00 +22°C° 0 mm 4 mps 751 mmHg 62%
    09:00 +25°C° 0 mm 4 mps 751 mmHg 56%
    10:00 +26°C° 0 mm 4 mps 751 mmHg 50%
    11:00 +27°C° 0 mm 4 mps 751 mmHg 48%
    12:00 +27°C° 0 mm 4 mps 751 mmHg 46%
    13:00 +28°C° 0 mm 4 mps 750 mmHg 44%
    14:00 +27°C° 0 mm 4 mps 750 mmHg 45%
    15:00 +27°C° 0 mm 5 mps 750 mmHg 46%
    16:00 +27°C° 0 mm 5 mps 749 mmHg 47%
    17:00 +25°C° 0 mm 4 mps 749 mmHg 53%
    18:00 +22°C° 0 mm 4 mps 749 mmHg 60%
    19:00 +21°C° 0 mm 4 mps 749 mmHg 67%
    20:00 +20°C° 0 mm 3 mps 749 mmHg 74%
    21:00 +18°C° 0 mm 3 mps 749 mmHg 81%
    22:00 +17°C° 0 mm 2 mps 749 mmHg 87%
    23:00 +17°C° 0 mm 2 mps 749 mmHg 90%

    27 July, Saturday

    Time Temperature Precipitation Wind Pressure Humidity
    00:00 +17°C° 0 mm 2 mps 749 mmHg 93%
    01:00 +16°C° 0 mm 2 mps 749 mmHg 95%
    02:00 +16°C° 0 mm 2 mps 749 mmHg 96%
    03:00 +16°C° 0 mm 2 mps 748 mmHg 96%
    04:00 +16°C° 0 mm 2 mps 748 mmHg 97%
    05:00 +18°C° 0 mm 3 mps 748 mmHg 90%
    06:00 +19°C° 0 mm 3 mps 749 mmHg 82%
    07:00 +21°C° 0 mm 4 mps 749 mmHg 75%
    08:00 +23°C° 0 mm 4 mps 749 mmHg 69%
    09:00 +25°C° 0 mm 4 mps 749 mmHg 63%
    10:00 +27°C° 0 mm 5 mps 749 mmHg 58%
    11:00 +27°C° 0 mm 5 mps 748 mmHg 54%
    12:00 +28°C° 0 mm 5 mps 748 mmHg 51%
    13:00 +29°C° 0 mm 5 mps 748 mmHg 47%
    14:00 +29°C° 0 mm 5 mps 748 mmHg 49%
    15:00 +29°C° 0 mm 5 mps 747 mmHg 51%
    16:00 +29°C° 0 mm 5 mps 747 mmHg 53%
    17:00 +27°C° 0 mm 5 mps 747 mmHg 60%
    18:00 +26°C° 0 mm 4 mps 747 mmHg 67%
    19:00 +25°C° 0 mm 4 mps 747 mmHg 74%
    20:00 +23°C° 0 mm 4 mps 747 mmHg 78%
    21:00 +22°C° 0 mm 3 mps 747 mmHg 82%
    22:00 +21°C° 0 mm 3 mps 747 mmHg 86%
    23:00 +20°C° 0 mm 3 mps 747 mmHg 88%

    28 July, Sunday

    Time Temperature Precipitation Wind Pressure Humidity
    00:00 +20°C° 0 mm 3 mps 747 mmHg 90%
    01:00 +20°C° 0 mm 3 mps 747 mmHg 92%
    02:00 +19°C° 0 mm 3 mps 747 mmHg 93%
    03:00 +19°C° 0 mm 3 mps 747 mmHg 94%
    04:00 +19°C° 0 mm 3 mps 747 mmHg 95%
    05:00 +20°C° 0 mm 3 mps 747 mmHg 87%
    06:00 +22°C° 0 mm 3 mps 747 mmHg 79%
    07:00 +23°C° 0 mm 4 mps 747 mmHg 72%
    08:00 +26°C° 0 mm 4 mps 748 mmHg 64%
    09:00 +28°C° 0 mm 5 mps 748 mmHg 56%
    10:00 +29°C° 0 mm 5 mps 748 mmHg 49%
    11:00 +30°C° 0 mm 5 mps 748 mmHg 47%
    12:00 +32°C° 0 mm 5 mps 748 mmHg 45%
    13:00 +32°C° 0 mm 5 mps 748 mmHg 43%
    14:00 +32°C° 0 mm 5 mps 747 mmHg 45%
    15:00 +30°C° 0 mm 5 mps 747 mmHg 48%
    16:00 +30°C° 0 mm 5 mps 747 mmHg 50%
    17:00 +28°C° 0 mm 4 mps 747 mmHg 55%
    18:00 +27°C° 0 mm 4 mps 747 mmHg 61%
    19:00 +26°C° 0 mm 4 mps 747 mmHg 66%
    20:00 +24°C° 0 mm 3 mps 747 mmHg 71%
    21:00 +22°C° 0 mm 3 mps 748 mmHg 75%
    22:00 +21°C° 0 mm 3 mps 748 mmHg 80%
    23:00 +20°C° 0 mm 3 mps 748 mmHg 81%
    Show more